軌道要素
by Kenji Muraoka,
from 142 observations 1995 Aug. 18 to 1996 Feb. 7,
mean residual is +/- 0.87 arc seconds.
Epoch = 1995 Aug. 31.0 TT JDT = 2449960.5
T = 1995 Aug. 31.41846 +/- 0.00004 (m.e.) TT
Peri. = 331.16166 +/- 0.00032
Node = 178.05437 +/- 0.00034 (2000.0)
Incl. = 147.39420 +/- 0.00003
q = 0.4363883 +/- 0.0000020 AU
e = 0.9980223 +/- 0.0000023
1/a = +0.0045321 +/- 0.0000052 1/AU
|